COSMOS 2491 DEB, 57566

Orbit data source: Space-Track

COSMOS 2491 DEB, 57566 is space debris in LEO originally from a launch on Wed, 25 Dec 2013 UTC launched from the Plesetsk Missile And Space Complex (PKMTR). Debris objects in space refer to the collection of defunct objects orbiting the Earth. Examples of debris include non-operational satellites, rocket bodies, and fragments generated from explosions, collisions, or faulty payload assembly.

Loading next visibility...
Identifier
57566, 2013-076BD
Orbit
LEO
Country
Flag of CISCIS
Related business
Manufacturer
TsNIIKhM
Mission
Spacecraft
Bus & Motor
Unknown
Mass
Unknown
Launch date (UTC)
2013-12-25 (12 years ago)
Launch vehicle
Unknown
Launch site
Plesetsk Missile And Space Complex (PKMTR)
Object type
Payload
Rocket body
Debris
Shape & HBR
Unknown shape, 0.1 m
Radar Cross Section
Small (<0.1 m²)

Expand to show TLE details & history
Last TLE update: 1 month ago

TLE from 1 month ago
0 COSMOS 2491 DEB
1 57566U 13076BD  26128.73194600  .00002951  00000-0  13671-1 0  9991
2 57566  82.4704 130.6054 0161292 189.3616 170.4465 12.72063887138902
Epoch: 2026-05-08T17:34Z
TLE epoch observation values (Epoch: 2026-05-08T17:34:00.134Z)
Latitude
-0.00005°
Longitude
0.54532°
Altitude
1,499.656 km
Speed
7.058 km/s
True Right ascension
08h 42m 25s
True Declination
0° 00' 00"
Sunlit
Object was in daylight at epoch
Visualization orbit readout
Latitude
Unknown
Longitude
Unknown
Altitude
Unknown
Speed
Unknown
Apparent Right ascension
Unknown
Apparent Declination
Unknown
Sunlit
N/A
Visualization observer readout
Local Sidereal Time
03:11:20
Azimuth
Unknown
Elevation
Unknown
Doppler factor
Unknown
Orbital elements
Apogee altitude
1,495.839 km
Perigee altitude
1,245.869 km
Semi-major axis
7,748.991 km
Eccentricity
0.01613
Inclination
82.4704°
RAAN
130.6054°
Arg. of periapsis
189.3616°
True anomaly
170.74727°
Mean anomaly
170.4465°
Eccentric anomaly
170.59748°
Mean motion
3.18182 °/min
Orbital period
113.14 mins
BSTAR
0.013671
Loading maneuver chart data...
Computing Atmospheric mass density...
Loading historical data...
Loading historical data...
Loading historical data...
Loading historical data...
Loading historical data...
Loading historical data...
Loading historical data...

Documentation

Showing up to 5 results
|